Date,TemperatureHighF,TemperatureAvgF,TemperatureLowF,DewpointHighF,DewpointAvgF,DewpointLowF,HumidityHigh,HumidityAvg,HumidityLow,PressureMaxIn,PressureMinIn,WindSpeedMaxMPH,WindSpeedAvgMPH,GustSpeedMaxMPH,PrecipitationSumIn
2013-1-1,33.0,29.5,26.0,-99.9,-99.9,-99.9,0,0,100,0.00,40.00,17,6,25,0.00
2013-1-2,39.0,34.8,31.0,-99.9,-99.9,-99.9,0,0,100,0.00,40.00,13,7,19,0.00
2013-1-3,35.0,33.9,31.0,-99.9,-99.9,-99.9,0,0,100,0.00,40.00,13,5,19,0.00
2013-1-4,40.0,34.8,32.0,-99.9,-99.9,-99.9,0,0,100,0.00,40.00,10,2,15,0.00
2013-1-5,37.0,35.0,32.0,-99.9,-99.9,-99.9,0,0,100,0.00,40.00,14,4,19,0.00
2013-1-6,34.0,32.0,30.0,-99.9,-99.9,-99.9,0,0,100,0.00,40.00,9,3,17,0.00
2013-1-7,37.0,33.4,31.0,-99.9,-99.9,-99.9,0,0,100,0.00,40.00,14,6,30,0.00
2013-1-8,39.0,33.2,29.0,-99.9,-99.9,-99.9,0,0,100,0.00,40.00,15,4,33,0.00
2013-1-9,39.0,32.1,29.0,-99.9,-99.9,-99.9,0,0,100,0.00,40.00,23,3,34,0.00
2013-1-10,29.0,25.5,22.0,-99.9,-99.9,-99.9,0,0,100,0.00,40.00,18,4,23,0.00
2013-1-12,23.0,19.9,18.0,-99.9,-99.9,-99.9,0,0,100,0.00,40.00,8,3,10,0.00
2013-1-13,29.0,21.8,18.0,-99.9,-99.9,-99.9,0,0,100,0.00,40.00,8,2,10,0.00
2013-1-14,29.0,24.8,21.0,-99.9,-99.9,-99.9,0,0,100,0.00,40.00,4,1,6,0.00
2013-1-15,32.0,27.5,24.0,-99.9,-99.9,-99.9,0,0,100,0.00,40.00,4,1,6,0.00
2013-1-16,35.0,28.0,22.0,-99.9,-99.9,-99.9,0,0,100,0.00,40.00,7,2,9,0.00
2013-1-17,43.0,38.0,33.0,-99.9,-99.9,-99.9,0,0,100,0.00,40.00,7,2,10,0.00
2013-1-18,42.0,37.4,35.0,-99.9,-99.9,-99.9,0,0,100,0.00,40.00,8,3,10,0.00
2013-1-19,47.0,39.9,35.0,-99.9,-99.9,-99.9,0,0,100,0.00,40.00,9,2,11,0.00
2013-1-20,49.0,43.9,40.0,-99.9,-99.9,-99.9,0,0,100,0.00,40.00,10,6,13,0.00
2013-1-21,46.0,42.6,39.0,-99.9,-99.9,-99.9,0,0,100,0.00,40.00,9,6,12,0.00
2013-1-22,49.0,43.3,38.0,-99.9,-99.9,-99.9,0,0,100,0.00,40.00,7,3,9,0.00
2013-1-23,45.0,37.4,33.0,-99.9,-99.9,-99.9,0,0,100,0.00,40.00,12,4,22,0.00
2013-1-24,36.0,32.8,30.0,-99.9,-99.9,-99.9,0,0,100,0.00,40.00,9,2,17,0.00
2013-1-25,41.0,35.6,32.0,-99.9,-99.9,-99.9,0,0,100,0.00,40.00,9,3,17,0.00
2013-1-26,33.0,31.6,30.0,-99.9,-99.9,-99.9,0,0,100,0.00,40.00,9,2,11,0.00
2013-1-27,33.0,30.8,30.0,-99.9,-99.9,-99.9,0,0,100,0.00,40.00,0,0,0,0.00
2013-1-28,31.0,30.0,29.0,-99.9,-99.9,-99.9,0,0,100,0.00,40.00,0,0,0,0.00
2013-1-29,35.0,32.0,30.0,-99.9,-99.9,-99.9,0,0,100,0.00,40.00,11,3,20,0.00
2013-1-30,36.0,35.4,34.0,-99.9,-99.9,-99.9,0,0,100,0.00,40.00,15,5,18,0.00
2013-1-31,38.0,36.4,36.0,-99.9,-99.9,-99.9,0,0,100,0.00,40.00,10,4,14,0.00
2013-2-1,39.0,36.0,34.0,-99.9,-99.9,-99.9,0,0,100,0.00,40.00,14,3,16,0.00
2013-2-2,46.0,39.6,35.0,-99.9,-99.9,-99.9,0,0,100,0.00,40.00,12,5,17,0.00
2013-2-3,36.0,34.3,32.0,-99.9,-99.9,-99.9,0,0,100,0.00,40.00,11,4,16,0.00
2013-2-4,38.0,35.2,34.0,-99.9,-99.9,-99.9,0,0,100,0.00,40.00,10,4,17,0.00
2013-2-5,37.0,35.3,33.0,-99.9,-99.9,-99.9,0,0,100,0.00,40.00,14,6,24,0.00
2013-2-6,39.0,34.2,32.0,-99.9,-99.9,-99.9,0,0,100,0.00,40.00,12,5,18,0.00
2013-2-7,36.0,32.7,29.0,-99.9,-99.9,-99.9,0,0,100,0.00,40.00,15,4,20,0.00
2013-2-8,36.0,31.0,29.0,-99.9,-99.9,-99.9,0,0,100,0.00,40.00,4,1,6,0.00
2013-2-9,35.0,31.1,28.0,-99.9,-99.9,-99.9,0,0,100,0.00,40.00,5,0,8,0.00
2013-2-10,36.0,30.9,27.0,-99.9,-99.9,-99.9,0,0,100,0.00,40.00,7,2,9,0.00
2013-2-11,35.0,32.3,30.0,-99.9,-99.9,-99.9,0,0,100,0.00,40.00,7,2,11,0.00
2013-2-12,37.0,34.6,33.0,-99.9,-99.9,-99.9,0,0,100,0.00,40.00,13,6,28,0.00
2013-2-13,38.0,34.2,32.0,-99.9,-99.9,-99.9,0,0,100,0.00,40.00,16,5,24,0.00
2013-2-14,37.0,33.8,31.0,-99.9,-99.9,-99.9,0,0,100,0.00,40.00,8,2,12,0.00
2013-2-15,45.0,38.3,33.0,-99.9,-99.9,-99.9,0,0,100,0.00,40.00,7,3,11,0.00
2013-2-16,42.0,36.3,32.0,-99.9,-99.9,-99.9,0,0,100,0.00,40.00,13,5,19,0.00
2013-2-17,38.0,32.1,29.0,-99.9,-99.9,-99.9,0,0,100,0.00,40.00,14,3,16,0.00
2013-2-18,38.0,31.3,28.0,-99.9,-99.9,-99.9,0,0,100,0.00,40.00,11,2,16,0.00
2013-2-19,38.0,31.0,27.0,-99.9,-99.9,-99.9,0,0,100,0.00,40.00,13,5,18,0.00
2013-2-20,35.0,30.3,27.0,-99.9,-99.9,-99.9,0,0,100,0.00,40.00,8,2,10,0.00
2013-2-21,33.0,30.9,28.0,-99.9,-99.9,-99.9,0,0,100,0.00,40.00,9,2,16,0.00
2013-2-22,33.0,31.2,29.0,-99.9,-99.9,-99.9,0,0,100,0.00,40.00,14,4,28,0.00
2013-2-23,33.0,30.7,29.0,-99.9,-99.9,-99.9,0,0,100,0.00,40.00,16,5,19,0.00
2013-2-24,35.0,32.1,29.0,-99.9,-99.9,-99.9,0,0,100,0.00,40.00,15,4,22,0.00
2013-2-25,33.0,31.0,29.0,-99.9,-99.9,-99.9,0,0,100,0.00,40.00,11,3,22,0.00
2013-2-26,38.0,31.5,28.0,-99.9,-99.9,-99.9,0,0,100,0.00,40.00,0,0,0,0.00
2013-2-27,39.0,32.9,30.0,-99.9,-99.9,-99.9,0,0,100,0.00,40.00,4,0,8,0.00
2013-2-28,38.0,33.4,30.0,-99.9,-99.9,-99.9,0,0,100,0.00,40.00,12,5,18,0.00
2013-3-1,41.0,40.3,38.0,-99.9,-99.9,-99.9,0,0,100,0.00,40.00,16,8,31,0.00
2013-3-2,41.0,37.5,30.0,-99.9,-99.9,-99.9,0,0,100,0.00,40.00,20,9,29,0.00
2013-3-3,36.0,30.8,28.0,-99.9,-99.9,-99.9,0,0,100,0.00,40.00,15,4,25,0.00
2013-3-4,38.0,32.1,28.0,-99.9,-99.9,-99.9,0,0,100,0.00,40.00,14,7,22,0.00
2013-3-5,35.0,32.2,29.0,-99.9,-99.9,-99.9,0,0,100,0.00,40.00,20,9,28,0.00
2013-3-6,36.0,33.0,31.0,-99.9,-99.9,-99.9,0,0,100,0.00,40.00,22,5,25,0.00
2013-3-7,42.0,34.2,30.0,-99.9,-99.9,-99.9,0,0,100,0.00,40.00,5,0,7,0.00
2013-3-8,43.0,35.4,30.0,-99.9,-99.9,-99.9,0,0,100,0.00,40.00,6,3,9,0.00
2013-3-9,44.0,36.2,31.0,-99.9,-99.9,-99.9,0,0,100,0.00,40.00,9,3,11,0.00
2013-3-10,36.0,34.7,33.0,-99.9,-99.9,-99.9,0,0,100,0.00,40.00,13,4,13,0.00
2013-3-11,44.0,35.9,31.0,-99.9,-99.9,-99.9,0,0,100,0.00,40.00,9,1,11,0.00
2013-3-12,41.0,38.4,31.0,-99.9,-99.9,-99.9,0,0,100,0.00,40.00,16,7,25,0.00
2013-3-13,47.0,42.2,39.0,-99.9,-99.9,-99.9,0,0,100,0.00,40.00,19,4,21,0.00
2013-3-14,46.0,42.3,37.0,-99.9,-99.9,-99.9,0,0,100,0.00,40.00,12,5,21,0.00
2013-3-15,47.0,41.7,38.0,-99.9,-99.9,-99.9,0,0,100,0.00,40.00,13,3,18,0.00
2013-3-16,40.0,35.4,29.0,-99.9,-99.9,-99.9,0,0,100,0.00,40.00,15,5,27,0.00
2013-3-17,35.0,30.6,28.0,-99.9,-99.9,-99.9,0,0,100,0.00,40.00,13,4,17,0.00
2013-3-18,36.0,31.0,28.0,-99.9,-99.9,-99.9,0,0,100,0.00,40.00,18,5,24,0.00
2013-3-19,39.0,31.3,25.0,-99.9,-99.9,-99.9,0,0,100,0.00,40.00,18,6,22,0.00
2013-3-20,39.0,34.4,28.0,-99.9,-99.9,-99.9,0,0,100,0.00,40.00,20,8,34,0.00
2013-3-21,36.0,29.6,26.0,-99.9,-99.9,-99.9,0,0,100,0.00,40.00,12,2,19,0.00
2013-3-22,35.0,30.3,27.0,-99.9,-99.9,-99.9,0,0,100,0.00,40.00,7,1,10,0.00
2013-3-23,38.0,30.2,24.0,-99.9,-99.9,-99.9,0,0,100,0.00,40.00,7,2,9,0.00
2013-3-24,41.0,33.2,26.0,-99.9,-99.9,-99.9,0,0,100,0.00,40.00,12,3,15,0.00
2013-3-25,52.0,39.5,33.0,-99.9,-99.9,-99.9,0,0,100,0.00,40.00,10,2,12,0.00
2013-3-26,53.0,43.2,38.0,-99.9,-99.9,-99.9,0,0,100,0.00,40.00,8,2,10,0.00
2013-3-27,56.0,44.2,38.0,-99.9,-99.9,-99.9,0,0,100,0.00,40.00,11,3,13,0.00
2013-3-28,56.0,45.9,40.0,-99.9,-99.9,-99.9,0,0,100,0.00,40.00,8,3,10,0.00
2013-3-29,56.0,45.7,41.0,-99.9,-99.9,-99.9,0,0,100,0.00,40.00,8,2,9,0.00
2013-3-30,61.0,48.5,40.0,-99.9,-99.9,-99.9,0,0,100,0.00,40.00,11,3,16,0.00
2013-3-31,66.0,54.0,45.0,-99.9,-99.9,-99.9,0,0,100,0.00,40.00,17,5,22,0.00
2013-4-1,56.0,49.5,44.0,-99.9,-99.9,-99.9,0,0,100,0.00,40.00,8,4,12,0.00
2013-4-2,47.0,42.3,39.0,-99.9,-99.9,-99.9,0,0,100,0.00,40.00,10,3,13,0.00
2013-4-3,56.0,46.4,40.0,-99.9,-99.9,-99.9,0,0,100,0.00,40.00,4,1,9,0.00
2013-4-4,52.0,46.3,44.0,-99.9,-99.9,-99.9,0,0,100,0.00,40.00,18,6,26,0.00
2013-4-5,45.0,42.8,40.0,-99.9,-99.9,-99.9,0,0,100,0.00,40.00,20,6,34,0.00
2013-4-6,45.0,39.6,33.0,-99.9,-99.9,-99.9,0,0,100,0.00,40.00,14,5,24,0.00
2013-4-7,36.0,34.1,32.0,-99.9,-99.9,-99.9,0,0,100,0.00,40.00,19,3,20,0.00
2013-4-8,44.0,38.5,34.0,-99.9,-99.9,-99.9,0,0,100,0.00,40.00,7,2,10,0.00
2013-4-9,45.0,40.1,36.0,-99.9,-99.9,-99.9,0,0,100,0.00,40.00,6,2,14,0.00
2013-4-10,44.0,40.4,38.0,-99.9,-99.9,-99.9,0,0,100,0.00,40.00,20,6,29,0.00
2013-4-11,44.0,37.9,34.0,-99.9,-99.9,-99.9,0,0,100,0.00,40.00,13,4,21,0.00
2013-4-12,37.0,33.3,31.0,-99.9,-99.9,-99.9,0,0,100,0.00,40.00,9,3,19,0.00
2013-4-13,41.0,33.1,28.0,-99.9,-99.9,-99.9,0,0,100,0.00,40.00,17,4,22,0.00
2013-4-14,45.0,36.2,31.0,-99.9,-99.9,-99.9,0,0,100,0.00,40.00,9,2,10,0.00
2013-4-15,44.0,36.4,31.0,-99.9,-99.9,-99.9,0,0,100,0.00,40.00,10,2,12,0.00
2013-4-16,49.0,39.8,33.0,-99.9,-99.9,-99.9,0,0,100,0.00,40.00,14,5,19,0.00
2013-4-17,52.0,41.6,35.0,-99.9,-99.9,-99.9,0,0,100,0.00,40.00,14,3,16,0.00
2013-4-18,43.0,38.3,35.0,-99.9,-99.9,-99.9,0,0,100,0.00,40.00,12,4,16,0.00
2013-4-19,45.0,41.8,38.0,-99.9,-99.9,-99.9,0,0,100,0.00,40.00,11,4,15,0.00
2013-4-20,44.0,40.1,37.0,-99.9,-99.9,-99.9,0,0,100,0.00,40.00,14,6,20,0.00
2013-4-21,41.0,36.1,30.0,-99.9,-99.9,-99.9,0,0,100,0.00,40.00,16,5,22,0.00
2013-4-22,53.0,40.4,31.0,-99.9,-99.9,-99.9,0,0,100,0.00,40.00,13,6,19,0.00
2013-4-23,56.0,45.0,35.0,-99.9,-99.9,-99.9,0,0,100,0.00,40.00,9,2,13,0.00
2013-4-24,61.0,49.5,41.0,-99.9,-99.9,-99.9,0,0,100,0.00,40.00,8,3,13,0.00
2013-4-25,61.0,49.3,40.0,-99.9,-99.9,-99.9,0,0,100,0.00,40.00,8,2,12,0.00
2013-4-26,59.0,49.5,42.0,-99.9,-99.9,-99.9,0,0,100,0.00,40.00,12,4,15,0.00
2013-4-27,48.0,43.0,41.0,-99.9,-99.9,-99.9,0,0,100,0.00,40.00,12,5,22,0.00
2013-4-28,46.0,39.6,34.0,-99.9,-99.9,-99.9,0,0,100,0.00,40.00,17,6,25,0.00
2013-4-29,45.0,37.3,31.0,-99.9,-99.9,-99.9,0,0,100,0.00,40.00,19,9,26,0.00
2013-4-30,47.0,37.6,29.0,-99.9,-99.9,-99.9,0,0,100,0.00,40.00,10,3,18,0.00
2013-5-1,55.0,42.5,31.0,-99.9,-99.9,-99.9,0,0,100,0.00,40.00,7,2,10,0.00
2013-5-2,60.0,48.7,41.0,-99.9,-99.9,-99.9,0,0,100,0.00,40.00,10,3,13,0.00
2013-5-3,67.0,53.6,43.0,-99.9,-99.9,-99.9,0,0,100,0.00,40.00,13,5,19,0.00
2013-5-4,73.0,61.2,51.0,-99.9,-99.9,-99.9,0,0,100,0.00,40.00,18,6,26,0.00
2013-5-5,82.0,67.1,57.0,-99.9,-99.9,-99.9,0,0,100,0.00,40.00,16,7,22,0.00
2013-5-6,79.0,67.0,58.0,-99.9,-99.9,-99.9,0,0,100,0.00,40.00,11,4,15,0.00
2013-5-7,68.0,60.3,54.0,-99.9,-99.9,-99.9,0,0,100,0.00,40.00,9,4,11,0.00
2013-5-8,66.0,56.6,49.0,-99.9,-99.9,-99.9,0,0,100,0.00,40.00,9,3,11,0.00
2013-5-9,71.0,58.5,49.0,-99.9,-99.9,-99.9,0,0,100,0.00,40.00,6,2,11,0.00
2013-5-10,75.0,60.6,52.0,-99.9,-99.9,-99.9,0,0,100,0.00,40.00,8,3,9,0.00
2013-5-11,78.0,62.0,54.0,-99.9,-99.9,-99.9,0,0,100,0.00,40.00,12,2,16,0.00
2013-5-12,63.0,54.3,50.0,-99.9,-99.9,-99.9,0,0,100,0.00,40.00,16,5,18,0.00
2013-5-13,56.0,47.0,39.0,-99.9,-99.9,-99.9,0,0,100,0.00,40.00,24,7,28,0.00
2013-5-14,58.0,45.0,38.0,-99.9,-99.9,-99.9,0,0,100,0.00,40.00,8,2,18,0.00
2013-5-15,62.0,49.3,42.0,-99.9,-99.9,-99.9,0,0,100,0.00,40.00,10,2,13,0.00
2013-5-16,64.0,49.3,43.0,-99.9,-99.9,-99.9,0,0,100,0.00,40.00,7,2,10,0.00
2013-5-17,53.0,47.5,45.0,-99.9,-99.9,-99.9,0,0,100,0.00,40.00,9,3,13,0.00
2013-5-18,53.0,46.4,42.0,-99.9,-99.9,-99.9,0,0,100,0.00,40.00,9,4,12,0.00
2013-5-19,55.0,47.8,43.0,-99.9,-99.9,-99.9,0,0,100,0.00,40.00,9,2,12,0.00
2013-5-20,66.0,50.9,43.0,-99.9,-99.9,-99.9,0,0,100,0.00,40.00,9,2,11,0.00
2013-5-21,46.0,42.0,39.0,-99.9,-99.9,-99.9,0,0,100,0.00,40.00,8,2,13,0.00
2013-5-22,54.0,44.4,38.0,-99.9,-99.9,-99.9,0,0,100,0.00,40.00,8,1,13,0.00
2013-5-23,55.0,44.1,37.0,-99.9,-99.9,-99.9,0,0,100,0.00,40.00,10,3,14,0.00
2013-5-24,55.0,46.1,38.0,-99.9,-99.9,-99.9,0,0,100,0.00,40.00,9,3,12,0.00
2013-5-25,54.0,46.6,41.0,-99.9,-99.9,-99.9,0,0,100,0.00,40.00,8,2,10,0.00
2013-5-26,54.0,46.9,42.0,-99.9,-99.9,-99.9,0,0,100,0.00,40.00,6,1,9,0.00
2013-5-27,58.0,48.8,43.0,-99.9,-99.9,-99.9,0,0,100,0.00,40.00,7,3,12,0.00
2013-5-28,52.0,47.5,44.0,-99.9,-99.9,-99.9,0,0,100,0.00,40.00,10,3,16,0.00
2013-5-29,49.0,45.4,42.0,-99.9,-99.9,-99.9,0,0,100,0.00,40.00,10,4,17,0.00
2013-5-30,53.0,45.3,40.0,-99.9,-99.9,-99.9,0,0,100,0.00,40.00,11,3,13,0.00
2013-5-31,58.0,48.5,42.0,-99.9,-99.9,-99.9,0,0,100,0.00,40.00,5,1,9,0.00
2013-6-1,60.0,51.6,44.0,-99.9,-99.9,-99.9,0,0,100,0.00,40.00,5,1,7,0.00
2013-6-2,65.0,53.0,44.0,-99.9,-99.9,-99.9,0,0,100,0.00,40.00,9,2,12,0.00
2013-6-3,66.0,55.2,45.0,-99.9,-99.9,-99.9,0,0,100,0.00,40.00,8,2,14,0.00
2013-6-4,74.0,59.3,49.0,-99.9,-99.9,-99.9,0,0,100,0.00,40.00,8,4,12,0.00
2013-6-5,72.0,61.1,54.0,51.0,-97.8,-99.9,66,1,66,29.44,29.44,9,3,12,0.00
2013-6-6,73.0,61.0,51.0,-99.9,-99.9,-99.9,0,0,100,0.00,40.00,9,3,13,0.00
2013-6-7,63.0,53.9,47.0,-99.9,-99.9,-99.9,0,0,100,0.00,40.00,12,4,19,0.00
2013-6-8,62.0,52.1,45.0,-99.9,-99.9,-99.9,0,0,100,0.00,40.00,10,4,15,0.00
2013-6-9,61.0,51.5,45.0,-99.9,-99.9,-99.9,0,0,100,0.00,40.00,12,6,15,0.00
2013-6-10,65.0,52.5,42.0,-99.9,-99.9,-99.9,0,0,100,0.00,40.00,12,4,14,0.00
2013-6-11,60.0,48.7,44.0,-99.9,-99.9,-99.9,0,0,100,0.00,40.00,8,4,14,0.00
2013-6-12,59.0,49.2,43.0,-99.9,-99.9,-99.9,0,0,100,0.00,40.00,8,3,10,0.00
2013-6-13,62.0,50.7,44.0,-99.9,-99.9,-99.9,0,0,100,0.00,40.00,9,3,11,0.00
2013-6-14,63.0,49.2,44.0,-99.9,-99.9,-99.9,0,0,100,0.00,40.00,9,3,12,0.00
2013-6-15,74.0,58.4,45.0,-99.9,-99.9,-99.9,0,0,100,0.00,40.00,10,3,21,0.00
2013-6-16,71.0,60.8,54.0,-99.9,-99.9,-99.9,0,0,100,0.00,40.00,9,2,17,0.00
2013-6-17,71.0,59.3,52.0,-99.9,-99.9,-99.9,0,0,100,0.00,40.00,8,2,13,0.00
2013-6-18,68.0,55.4,49.0,-99.9,-99.9,-99.9,0,0,100,0.00,40.00,14,2,20,0.00
2013-6-19,52.0,49.7,47.0,-99.9,-99.9,-99.9,0,0,100,0.00,40.00,9,4,13,0.00
2013-6-20,47.0,45.5,44.0,-99.9,-99.9,-99.9,0,0,100,0.00,40.00,10,3,19,0.00
2013-6-22,71.0,61.3,55.0,-99.9,-99.9,-99.9,0,0,100,0.00,40.00,6,1,11,0.00
2013-6-23,68.0,58.8,53.0,-99.9,-99.9,-99.9,0,0,100,0.00,40.00,9,4,13,0.00
2013-6-24,61.0,54.1,51.0,-99.9,-99.9,-99.9,0,0,100,0.00,40.00,11,3,19,0.00
2013-6-25,69.0,54.6,49.0,-99.9,-99.9,-99.9,0,0,100,0.00,40.00,9,2,14,0.00
2013-6-26,65.0,56.3,50.0,-99.9,-99.9,-99.9,0,0,100,0.00,40.00,7,2,11,0.00
2013-6-27,65.0,56.8,52.0,-99.9,-99.9,-99.9,0,0,100,0.00,40.00,8,3,13,0.00
2013-6-28,73.0,63.0,55.0,-99.9,-99.9,-99.9,0,0,100,0.00,40.00,13,4,20,0.00
2013-6-29,79.0,69.0,60.0,-99.9,-99.9,-99.9,0,0,100,0.00,40.00,9,3,11,0.00
2013-6-30,90.0,73.7,62.0,-99.9,-99.9,-99.9,0,0,100,0.00,40.00,8,3,15,0.00
2013-7-1,83.0,74.5,67.0,-99.9,-99.9,-99.9,0,0,100,0.00,40.00,13,5,15,0.00
2013-7-2,78.0,67.1,61.0,-99.9,-99.9,-99.9,0,0,100,0.00,40.00,10,4,13,0.00
2013-7-3,73.0,62.5,52.0,-99.9,-99.9,-99.9,0,0,100,0.00,40.00,10,4,13,0.00
2013-7-4,68.0,58.3,52.0,-99.9,-99.9,-99.9,0,0,100,0.00,40.00,10,4,16,0.00
2013-7-5,71.0,59.3,51.0,-99.9,-99.9,-99.9,0,0,100,0.00,40.00,10,4,13,0.00
2013-7-6,74.0,60.4,52.0,-99.9,-99.9,-99.9,0,0,100,0.00,40.00,10,3,13,0.00
2013-7-7,74.0,63.6,56.0,-99.9,-99.9,-99.9,0,0,100,0.00,40.00,10,3,13,0.00
2013-7-8,74.0,60.7,55.0,-99.9,-99.9,-99.9,0,0,100,0.00,40.00,9,2,12,0.00
2013-7-9,80.0,66.9,56.0,-99.9,-99.9,-99.9,0,0,100,0.00,40.00,10,3,11,0.00
2013-7-10,69.0,60.4,51.0,-99.9,-99.9,-99.9,0,0,100,0.00,40.00,15,5,16,0.00
2013-7-11,67.0,54.0,45.0,-99.9,-99.9,-99.9,0,0,100,0.00,40.00,11,4,17,0.00
2013-7-12,68.0,54.5,46.0,-99.9,-99.9,-99.9,0,0,100,0.00,40.00,11,2,14,0.00
2013-7-13,73.0,58.7,45.0,-99.9,-99.9,-99.9,0,0,100,0.00,40.00,7,3,11,0.00
2013-7-14,75.0,61.1,49.0,-99.9,-99.9,-99.9,0,0,100,0.00,40.00,11,3,14,0.00
2013-7-15,81.0,63.1,52.0,-99.9,-99.9,-99.9,0,0,100,0.00,40.00,19,6,29,0.00
2013-7-16,83.0,70.4,63.0,-99.9,-99.9,-99.9,0,0,100,0.00,40.00,28,10,37,0.00
2013-7-17,73.0,65.4,54.0,-99.9,-99.9,-99.9,0,0,100,0.00,40.00,16,4,20,0.00
2013-7-18,73.0,61.0,54.0,-99.9,-99.9,-99.9,0,0,100,0.00,40.00,9,4,13,0.00
2013-7-19,76.0,64.3,56.0,-99.9,-99.9,-99.9,0,0,100,0.00,40.00,9,2,12,0.00
2013-7-20,73.0,62.8,56.0,-99.9,-99.9,-99.9,0,0,100,0.00,40.00,10,4,12,0.00
2013-7-21,72.0,62.1,53.0,-99.9,-99.9,-99.9,0,0,100,0.00,40.00,11,4,13,0.00
2013-7-22,75.0,61.5,53.0,-99.9,-99.9,-99.9,0,0,100,0.00,40.00,8,4,11,0.00
2013-7-23,79.0,65.2,56.0,-99.9,-99.9,-99.9,0,0,100,0.00,40.00,9,3,11,0.00
2013-7-24,79.0,67.3,59.0,-99.9,-99.9,-99.9,0,0,100,0.00,40.00,11,3,12,0.00
2013-7-25,78.0,66.7,58.0,-99.9,-99.9,-99.9,0,0,100,0.00,40.00,10,3,12,0.00
2013-7-26,75.0,63.7,57.0,-99.9,-99.9,-99.9,0,0,100,0.00,40.00,10,3,15,0.00
2013-7-27,72.0,60.2,50.0,-99.9,-99.9,-99.9,0,0,100,0.00,40.00,10,4,13,0.00
2013-7-28,71.0,59.7,52.0,-99.9,-99.9,-99.9,0,0,100,0.00,40.00,10,4,17,0.00
2013-7-29,71.0,60.1,52.0,-99.9,-99.9,-99.9,0,0,100,0.00,40.00,10,4,13,0.00
2013-7-30,71.0,62.5,56.0,-99.9,-99.9,-99.9,0,0,100,0.00,40.00,8,3,10,0.00
2013-7-31,73.0,64.1,56.0,-99.9,-99.9,-99.9,0,0,100,0.00,40.00,11,2,13,0.00
2013-8-1,64.0,58.0,52.0,-99.9,-99.9,-99.9,0,0,100,0.00,40.00,11,5,13,0.00
2013-8-2,58.0,52.9,51.0,-99.9,-99.9,-99.9,0,0,100,0.00,40.00,8,2,11,0.00
2013-8-3,69.0,59.1,50.0,-99.9,-99.9,-99.9,0,0,100,0.00,40.00,6,1,8,0.00
2013-8-4,75.0,64.4,56.0,-99.9,-99.9,-99.9,0,0,100,0.00,40.00,8,2,11,0.00
2013-8-5,77.0,66.4,59.0,-99.9,-99.9,-99.9,0,0,100,0.00,40.00,8,4,12,0.00
2013-8-6,77.0,65.9,59.0,-99.9,-99.9,-99.9,0,0,100,0.00,40.00,8,3,11,0.00
2013-8-7,77.0,66.9,61.0,-99.9,-99.9,-99.9,0,0,100,0.00,40.00,9,3,11,0.00
2013-8-8,75.0,65.5,59.0,-99.9,-99.9,-99.9,0,0,100,0.00,40.00,10,2,11,0.00
2013-8-9,79.0,68.4,60.0,-99.9,-99.9,-99.9,0,0,100,0.00,40.00,7,3,12,0.00
2013-8-10,73.0,65.9,60.0,-99.9,-99.9,-99.9,0,0,100,0.00,40.00,12,4,14,0.00
2013-8-11,69.0,61.3,56.0,-99.9,-99.9,-99.9,0,0,100,0.00,40.00,9,4,13,0.00
2013-8-21,75.0,62.8,53.0,-99.9,-99.9,-99.9,0,0,100,0.00,40.00,8,3,15,0.00
2013-8-22,78.0,68.0,60.0,-99.9,-99.9,-99.9,0,0,100,0.00,40.00,9,3,11,0.00
2013-8-23,67.0,60.7,56.0,-99.9,-99.9,-99.9,0,0,100,0.00,40.00,12,4,16,0.00
2013-8-24,66.0,55.8,51.0,-99.9,-99.9,-99.9,0,0,100,0.00,40.00,9,3,10,0.00
2013-8-25,71.0,58.3,51.0,-99.9,-99.9,-99.9,0,0,100,0.00,40.00,6,2,8,0.00
2013-8-26,69.0,59.0,53.0,-99.9,-99.9,-99.9,0,0,100,0.00,40.00,12,3,20,0.00
2013-8-27,67.0,56.7,53.0,-99.9,-99.9,-99.9,0,0,100,0.00,40.00,6,2,11,0.00
2013-9-24,52.0,45.6,41.0,-99.9,-99.9,-99.9,0,0,100,0.00,40.00,4,1,7,0.00
2013-9-25,56.0,46.6,40.0,-99.9,-99.9,-99.9,0,0,100,0.00,40.00,11,3,15,0.00
2013-9-26,57.0,47.4,41.0,-99.9,-99.9,-99.9,0,0,100,0.00,40.00,11,4,17,0.00
2013-9-27,45.0,43.7,42.0,-99.9,-99.9,-99.9,0,0,100,0.00,40.00,9,3,13,0.00
2013-9-28,50.0,43.9,42.0,-99.9,-99.9,-99.9,0,0,100,0.00,40.00,25,5,32,0.00
2013-9-29,45.0,43.1,41.0,-99.9,-99.9,-99.9,0,0,100,0.00,40.00,18,8,28,0.00
2013-9-30,43.0,40.7,39.0,-99.9,-99.9,-99.9,0,0,100,0.00,40.00,21,8,28,0.00
2013-10-2,46.0,40.6,38.0,-99.9,-99.9,-99.9,0,0,100,0.00,40.00,6,2,10,0.00
2013-10-3,49.0,42.1,38.0,-99.9,-99.9,-99.9,0,0,100,0.00,40.00,8,3,12,0.00
2013-10-4,52.0,44.9,39.0,-99.9,-99.9,-99.9,0,0,100,0.00,40.00,9,2,10,0.00
2013-10-5,60.0,52.2,47.0,-99.9,-99.9,-99.9,0,0,100,0.00,40.00,6,2,8,0.00
2013-10-6,64.0,56.4,52.0,-99.9,-99.9,-99.9,0,0,100,0.00,40.00,14,5,33,0.00
2013-10-7,52.0,44.1,42.0,-99.9,-99.9,-99.9,0,0,100,0.00,40.00,15,7,29,0.00
2013-10-8,46.0,39.5,35.0,-99.9,-99.9,-99.9,0,0,100,0.00,40.00,19,6,27,0.00
2013-10-9,48.0,40.7,38.0,-99.9,-99.9,-99.9,0,0,100,0.00,40.00,13,4,19,0.00
2013-10-10,49.0,42.5,38.0,-99.9,-99.9,-99.9,0,0,100,0.00,40.00,7,2,9,0.00
2013-10-18,56.0,49.9,46.0,-99.9,-99.9,-99.9,0,0,100,0.00,40.00,10,3,15,0.00
2013-10-19,55.0,48.2,45.0,-99.9,-99.9,-99.9,0,0,100,0.00,40.00,8,3,10,0.00
2013-10-20,58.0,50.9,44.0,-99.9,-99.9,-99.9,0,0,100,0.00,40.00,11,4,15,0.00
2013-10-21,62.0,55.2,50.0,-99.9,-99.9,-99.9,0,0,100,0.00,40.00,11,5,16,0.00
2013-10-22,63.0,56.8,53.0,-99.9,-99.9,-99.9,0,0,100,0.00,40.00,10,5,14,0.00
2013-10-23,62.0,57.1,53.0,-99.9,-99.9,-99.9,0,0,100,0.00,40.00,11,4,16,0.00
2013-10-24,62.0,56.3,52.0,-99.9,-99.9,-99.9,0,0,100,0.00,40.00,8,3,10,0.00
2013-10-25,49.0,43.8,40.0,-99.9,-99.9,-99.9,0,0,100,0.00,40.00,8,3,10,0.00
2013-10-26,49.0,41.1,39.0,-99.9,-99.9,-99.9,0,0,100,0.00,40.00,11,3,15,0.00
2013-10-27,47.0,42.9,38.0,-99.9,-99.9,-99.9,0,0,100,0.00,40.00,26,8,38,0.00
2013-10-28,44.0,40.2,38.0,-99.9,-99.9,-99.9,0,0,100,0.00,40.00,28,16,53,0.00
2013-10-29,46.0,39.5,35.0,-99.9,-99.9,-99.9,0,0,100,0.00,40.00,16,5,27,0.00
2013-10-30,47.0,40.5,36.0,-99.9,-99.9,-99.9,0,0,100,0.00,40.00,8,2,13,0.00
2013-10-31,44.0,42.1,40.0,-99.9,-99.9,-99.9,0,0,100,0.00,40.00,12,3,12,0.00
2013-11-1,47.0,44.1,42.0,-99.9,-99.9,-99.9,0,0,100,0.00,40.00,9,2,12,0.00
2013-11-2,42.0,35.4,31.0,-99.9,-99.9,-99.9,0,0,100,0.00,40.00,14,4,25,0.00
2013-11-3,40.0,33.8,29.0,-99.9,-99.9,-99.9,0,0,100,0.00,40.00,4,0,7,0.00
2013-11-4,37.0,32.2,29.0,-99.9,-99.9,-99.9,0,0,100,0.00,40.00,7,3,10,0.00
2013-11-5,37.0,33.4,31.0,-99.9,-99.9,-99.9,0,0,100,0.00,40.00,11,5,15,0.00
2013-11-9,41.0,37.0,35.0,-99.9,-99.9,-99.9,0,0,100,0.00,40.00,13,3,14,0.00
2013-11-10,40.0,37.8,35.0,-99.9,-99.9,-99.9,0,0,100,0.00,40.00,18,8,31,0.00
2013-11-11,48.0,41.5,36.0,-99.9,-99.9,-99.9,0,0,100,0.00,40.00,19,10,30,0.00
2013-11-12,50.0,46.0,44.0,-99.9,-99.9,-99.9,0,0,100,0.00,40.00,14,5,16,0.00
2013-11-13,45.0,42.5,41.0,-99.9,-99.9,-99.9,0,0,100,0.00,40.00,13,4,20,0.00
2013-11-14,41.0,38.6,35.0,-99.9,-99.9,-99.9,0,0,100,0.00,40.00,7,2,13,0.00
2013-11-15,35.0,33.7,32.0,-99.9,-99.9,-99.9,0,0,100,0.00,40.00,15,5,25,0.00
2013-11-25,51.0,45.0,42.0,-99.9,-99.9,-99.9,0,0,100,0.00,40.00,9,2,12,0.00
2013-11-26,46.0,43.0,39.0,-99.9,-99.9,-99.9,0,0,100,0.00,40.00,7,2,8,0.00
2013-11-27,49.0,45.0,42.0,-99.9,-99.9,-99.9,0,0,100,0.00,40.00,15,6,17,0.00
2013-11-28,48.0,44.0,41.0,-99.9,-99.9,-99.9,0,0,100,0.00,40.00,6,2,8,0.00
2013-11-29,41.0,39.3,38.0,-99.9,-99.9,-99.9,0,0,100,0.00,40.00,13,3,17,0.00
2013-11-30,41.0,37.7,36.0,-99.9,-99.9,-99.9,0,0,100,0.00,40.00,11,3,17,0.00
2013-12-1,42.0,39.2,32.0,-99.9,-99.9,-99.9,0,0,100,0.00,40.00,24,7,25,0.00